Location: Unspecified
(51.5147°N, 7.4673°E)
Time: 18:56:25
(UTC+01:00)

Explorer 7 - Pass Details

Date: 20 February 2026
Orbit: 430 x 541 km, 50.2° (Epoch: 12 March)

Event Time Altitude Azimuth Distance (km) Brightness Sun altitude
Rises 19:54:17 0° 281° (W) 2,519 11.9 -19.3°
Reaches altitude 10° 19:56:36 10° 269° (W) 1,660 10.5 -19.7°
Maximum altitude 19:59:51 28° 209° (SSW) 959 8.2 -20.2°
Enters shadow 20:01:05 23° 177° (S) 1,100 8.2 -20.3°
Drops below altitude 10° 20:03:11 10° 150° (SSE) 1,714 - -20.7°
Sets 20:05:37 0° 139° (SE) 2,618 - -21.0°
